TimeEST,TemperatureF,Dew PointF,Humidity,Sea Level PressureIn,VisibilityMPH,Wind Direction,Wind SpeedMPH,Gust SpeedMPH,PrecipitationIn,Events,Conditions,WindDirDegrees,DateUTC
12:00 AM,8.6,1.4,73,30.03,0.8,NW,10.4,16.1,0.00,Snow,Light Snow,310,2013-01-23 05:00:00
12:13 AM,8.6,1.4,73,30.03,1.0,WNW,11.5,-,0.00,Snow,Light Snow,290,2013-01-23 05:13:00
12:17 AM,8.6,1.4,73,30.03,3.0,West,10.4,-,0.00,Snow,Light Snow,270,2013-01-23 05:17:00
12:26 AM,8.6,-0.4,67,30.03,10.0,West,9.2,17.3,0.00,,Overcast,280,2013-01-23 05:26:00
12:54 AM,7.0,-2.0,67,30.08,10.0,WNW,9.2,-,0.00,,Mostly Cloudy,290,2013-01-23 05:54:00
1:54 AM,5.0,-5.1,63,30.09,10.0,West,5.8,-,N/A,,Clear,270,2013-01-23 06:54:00
2:54 AM,5.0,-13.0,43,30.10,10.0,WNW,11.5,17.3,N/A,,Clear,290,2013-01-23 07:54:00
3:54 AM,3.0,-11.0,52,30.10,10.0,West,5.8,-,N/A,,Partly Cloudy,270,2013-01-23 08:54:00
4:54 AM,1.9,-11.9,52,30.12,10.0,West,9.2,-,N/A,,Partly Cloudy,270,2013-01-23 09:54:00
5:54 AM,1.9,-11.9,52,30.13,10.0,Variable,6.9,-,N/A,,Clear,0,2013-01-23 10:54:00
6:54 AM,1.0,-13.0,52,30.15,10.0,West,3.5,-,N/A,,Clear,280,2013-01-23 11:54:00
7:54 AM,1.0,-11.9,55,30.15,10.0,Variable,3.5,-,N/A,,Clear,0,2013-01-23 12:54:00
8:54 AM,3.0,-11.9,50,30.17,10.0,West,8.1,-,N/A,,Clear,280,2013-01-23 13:54:00
10:54 AM,6.1,-11.0,45,30.16,10.0,West,15.0,23.0,N/A,,Clear,280,2013-01-23 15:54:00
11:54 AM,6.1,-11.0,45,30.14,10.0,West,13.8,18.4,N/A,,Clear,270,2013-01-23 16:54:00
12:54 PM,7.0,-11.0,44,30.11,10.0,WNW,11.5,20.7,N/A,,Partly Cloudy,290,2013-01-23 17:54:00
1:54 PM,9.0,-9.0,44,30.10,10.0,West,11.5,17.3,N/A,,Partly Cloudy,280,2013-01-23 18:54:00
2:54 PM,8.1,-9.9,44,30.11,10.0,WSW,13.8,24.2,N/A,,Overcast,250,2013-01-23 19:54:00
3:54 PM,8.1,-11.0,42,30.12,10.0,Variable,6.9,17.3,N/A,,Clear,0,2013-01-23 20:54:00
4:54 PM,5.0,-9.9,50,30.13,10.0,SW,9.2,-,N/A,,Clear,230,2013-01-23 21:54:00
5:54 PM,3.9,-9.9,53,30.14,10.0,SW,6.9,-,N/A,,Clear,220,2013-01-23 22:54:00
6:54 PM,3.0,-9.0,57,30.16,10.0,West,8.1,17.3,N/A,,Clear,260,2013-01-23 23:54:00
7:54 PM,3.0,-9.0,57,30.15,10.0,WSW,10.4,-,N/A,,Clear,250,2013-01-24 00:54:00
8:54 PM,1.9,-9.9,58,30.15,10.0,West,6.9,-,N/A,,Clear,260,2013-01-24 01:54:00
9:54 PM,1.0,-11.0,57,30.15,10.0,West,3.5,-,N/A,,Clear,270,2013-01-24 02:54:00
10:54 PM,-0.0,-9.9,63,30.15,10.0,SW,3.5,-,N/A,,Clear,220,2013-01-24 03:54:00
11:54 PM,-0.0,-9.9,63,30.15,10.0,Calm,Calm,-,N/A,,Clear,0,2013-01-24 04:54:00